www.pogodaiklimat.ru
Время
(UTC), дата
03 16.10
06 16.10
09 16.10
12 16.10
15 16.10
18 16.10
21 16.10
00 17.10
03 17.10
06 17.10
09 17.10
12 17.10
15 17.10
18 17.10
21 17.10
00 18.10
03 18.10
06 18.10
09 18.10
12 18.10
15 18.10
18 18.10
21 18.10
00 19.10
03 19.10
06 19.10
09 19.10
12 19.10
15 19.10
18 19.10
21 19.10
00 20.10
03 20.10
06 20.10
09 20.10
12 20.10
15 20.10
18 20.10
21 20.10
00 21.10
03 21.10
06 21.10
09 21.10
12 21.10
15 21.10
18 21.10
21 21.10
00 22.10
03 22.10
06 22.10
09 22.10
12 22.10
15 22.10
18 22.10
21 22.10
00 23.10
Ветер
(напр.,м/с)
Видим. Явления Облачность Т
(С)
Тd
(С)
f
(%)
Тe
(С)
Тes
(С)
Комфортность P
(гПа)
Po
(гПа)
Тmin
(С)
Tmax
(С)
R
(мм)
R24
(мм)
S
(см)
З 6 4000 м слаб. ливневой снег 10/10 300 м
[Cb cap]
+1.4 -0.3 88 -5 -5 996.7 967.3
З 5
{11}
50 км {ливн. снег} 8/5 800 м
[Cu med, cong Ci fib]
-0.7 -9.2 53 -6 -6 1001.7 971.9
З 5-10
{11}
50 км 8/6 1050 м
[Cb cap Ci fib]
-2.2 -10.3 54 -8 -8 1006.3 976.2
З 5
{11}
20 км слаб. ливневой снег 10/10 1200 м
[Cb cap]
-3.2 -9.1 64 -10 -10 1010.1 979.8 +2.3 0.3
З 4 50 км {ливн. снег} 9/4 1000 м
[Cb cap Ac trans Ci fib]
-4.2 -9.2 68 -10 -10 1012.1 981.6
З 4 2000 м ливневой снег 10/10 800 м
[Cb cap]
-4.7 -8.7 74 -11 -11 1013.0 982.5
З 4 20 км слаб. ливневой снег 10/8 800 м
[Cb cap Ci fib]
-4.8 -7.2 83 -11 -11 1013.2 982.7
ЮЗ 3 50 км в посл. час ливневой снег 10/8 900 м
[Cb cap Ac und]
-4.8 -6.1 91 -10 -10 1012.9 982.4 -5.1 0.3 3
З 4 50 км 10/8 800 м
[Cb cap Ac und]
-2.8 -6.5 76 -9 -9 1013.1 982.8
З 4 50 км в посл. час ливневой снег н/о -3.1 -6.6 77 -9 -9 1013.4 983.0
З 4 50 км {ливн. снег} 8/6 800 м
[Cb cap Ac trans]
-3.7 -7.7 74 -10 -10 1013.6 983.2
З 2 20 км слаб. ливневой снег 10/6 750 м
[Cb cap Ac trans Ci fib]
-5.6 -7.4 87 -10 -10 1013.5 982.9 -2.2 0.2
ЮЗ 3 20 км слаб. ливневой снег 8/6 720 м
[Cb cap Ci fib]
-4.3 -5.5 91 -10 -10 1012.7 982.2
З 2 50 км в посл. час ливневой снег 8/5 840 м
[Cb cap Ci fib]
-4.4 -5.3 93 -9 -9 1011.7 981.2
нст 1 50 км {ливн. снег} 10/8 800 м
[Cb cap Ci fib]
-6.0 -6.4 97 -9 -9 1011.3 980.5
В 2 4000 м {ливн. снег} 10/9 870 м
[St Ci fib]
-6.1 -6.5 97 -11 -11 1011.5 980.7 -6.9 0.3 3
В 2 50 км 10/3 300 м
[St Ci fib]
-3.6 -6.1 83 -8 -7 1011.1 980.7
В 3 50 км 8/3 600 м
[Cu hum Ci fib]
-1.7 -6.2 71 -6 -6 1010.9 980.7
В 2 50 км 8/1 600 м
[Sc diur, vesp Ac trans Ci fib]
-2.4 -7.2 70 -6 -6 1011.4 981.1
В 2 50 км 4/1 600 м
[Sc Ac trans Ci fib]
-5.0 -7.8 81 -9 -9 1010.8 980.3 -0.8
В 2 50 км 6/3 600 м
[Sc Ac trans Ci fib]
-7.0 -8.7 88 -11 -11 1010.4 979.6
В 2 50 км 8/3 600 м
[Sc Ac trans Ci fib]
-6.8 -9.0 84 -11 -11 1009.1 978.3
В 3 50 км 8/4 1000 м
[Sc Ac trans Ci fib]
-6.3 -8.6 84 -12 -12 1007.1 976.5
В 3 10 км слаб. снег 10/4 1000 м
[Sc Ac As]
-6.0 -7.9 86 -12 -12 1006.1 975.5 -7.2 0.0 1
В 2 4000 м слаб. снег 10/8 700 м
[Sc As op]
-5.4 -6.8 90 -10 -10 1005.5 975.1
штиль 0 20 км слаб. снег 10/0 300 м
[As op]
-4.1 -5.3 91 -5 -5 1005.4 975.1
З 3 50 км в посл. час ливневой снег 10/10 1380 м
[Cb cap]
-2.1 -3.0 94 -7 -7 1008.2 978.0
З 6-11
{11}
50 км позёмок {ливн. снег, снег} 10/9 1380 м
[Sc Ac und]
+0.4 -6.2 61 -6 -6 1011.2 981.2 +0.9 2
З 4
{11}
50 км {метель} 10/10 1500 м
[Sc]
-0.7 -6.3 66 -6 -6 1012.7 982.6
З 3 50 км {метель} 10/8 1500 м
[Sc Ac und]
-1.8 -6.0 73 -7 -7 1013.2 983.0
З 2 50 км 8/4 1500 м
[Sc Ac trans]
-3.7 -6.2 83 -8 -8 1013.5 983.1
ЮЗ 4 50 км 6/4 1500 м
[Sc Ac trans]
-2.8 -5.8 80 -9 -9 1013.5 983.2 -4.5 2
З 5 50 км 8/6 1200 м
[Cu med, cong Ac trans]
-0.9 -6.6 65 -7 -7 1012.9 982.7
З 6 50 км в посл. час ливневой снег 8/5 1140 м
[Cb cap Ci fib]
-0.6 -6.6 64 -7 -7 1011.8 981.7
ЮЗ 5
{11}
50 км {ливн. снег} 6/3 1000 м
[Cb cap Ac lent Ci fib]
-2.5 -6.9 72 -9 -9 1012.1 981.8
З 3 50 км {ливн. снег} 10/3 1000 м
[Cb cap Ac trans Ci fib]
-3.8 -6.3 83 -9 -9 1012.5 982.1 +0.2 0.0
З 2 4000 м слаб. ливневой снег 10/8 400 м
[Cb cap Ac und]
-3.8 -6.0 85 -8 -8 1012.2 981.8
З 1 50 км {ливн. снег} 8/5 300 м
[Cb cap Ac trans]
-7.1 -8.4 90 -10 -10 1013.0 982.1
З 2 20 км слаб. ливневой снег 10/8 840 м
[Cb cap Ac und]
-6.8 -7.3 96 -11 -11 1012.9 982.1
З 2 20 км слаб. ливневой снег 10/6 900 м
[Cb cap Ac und]
-5.1 -6.5 90 -9 -9 1013.3 982.7 -9.0 0.2 3
З 3 4000 м слаб. ливневой снег 10/8 800 м
[Cb cap Ac und]
-3.7 -5.5 87 -9 -9 1013.4 983.0
З 4 20 км слаб. ливневой снег 10/8 800 м
[Cb cap Ac und]
-3.5 -6.7 78 -10 -10 1013.6 983.2
З 3 2000 м ливневой снег 10/9 800 м
[Cb cap Ac und]
-4.0 -5.2 91 -9 -9 1013.7 983.2
З 3 20 км слаб. ливневой снег 10/10 360 м
[Cb cap]
-4.9 -5.5 96 -11 -11 1014.3 983.6 -3.4 1
З 2 50 км {ливн. снег} 10/9 870 м
[Cb cap Ac und]
-6.8 -8.0 91 -11 -11 1014.8 983.8
З 3 50 км {ливн. снег} 10/10 900 м
[Cb cap]
-6.9 -8.2 90 -13 -13 1015.4 984.4
штиль 0 20 км слаб. ливневой снег 10/10 930 м
[Cb cap]
-7.1 -8.4 90 -8 -8 1015.8 984.8
штиль 0 20 км слаб. ливневой снег 10/10 870 м
[Cb cap]
-6.5 -7.3 94 -7 -7 1016.4 985.6 -7.8 0.2 5
нст 1 50 км {ливн. снег} 10/9 1320 м
[Sc Ac und]
-3.2 -4.9 88 -6 -6 1015.8 985.3
нст 1 20 км слаб. снег 10/8 1170 м
[Sc Ac trans Ci fib]
-2.5 -3.8 91 -5 -5 1014.7 984.3
нст 1 4000 м слаб. снег 10/10 1050 м
[Sc]
-2.3 -2.6 98 -5 -5 1013.4 983.1
нст 1 20 км слаб. снег 10/10 960 м
[Sc]
-1.2 -1.4 99 -4 -4 1012.4 982.2 -1.2 3
нст 1 50 км {снег} 10/9 930 м
[Cb cap Ac und]
-0.6 -0.9 98 -3 -3 1011.4 981.3
нст 1 50 км {снег} 8/6 600 м
[Cb cap Ac trans]
-1.5 -2.0 96 -4 -4 1010.3 980.2
нст 1 50 км 9/5 1380 м
[Sc Ac trans]
-2.2 -2.5 98 -5 -5 1009.3 979.1
нст 1 50 км 10/3 1500 м
[Sc Ac trans Cc]
-1.5 -1.4 100 -4 -4 1008.0 977.9 -3.0 0.0 6
Местоположение метеостанции Ленск (Якутия, Россия): широта 60.72 долгота 114.80 высота над уровнем моря 241 м.
В архиве по умолчанию представлена погода в Ленске за последнюю неделю. Архивные данные за месяц целиком и за предыдущие месяцы, начиная с января 2011 года, Вы можете получить, выбрав интересующий диапазон дат из раскрывающегося списка и нажав кнопку "Найти!".
*Определитесь, кто Вы:
Внимание! Время в таблицах - всемирное. Для получения местного времени необходимо прибавить поправку, которая равна 9 ч.
Смотрите также архив погоды в соседних городах и на ближайших метеорологических станциях:
Партнеры нашего сайта:      
Пояснения к столбцам:
  • Ветер - указаны скорость ветра в м/с - средняя за 10 мин, порывы в срок и между сроками (в фигурных скобках) и направление, откуда дует ветер: С - северный,
  • СВ - северо-восточный, В - восточный, ЮВ - юго-восточный, Ю - южный, ЮЗ - юго-западный, З - западный, СЗ - северо-западный.
  • Видимость - горизонтальная дальность видимости в метрах или километрах. При видимости от 1 до 10 км при отсутствии осадков обычно наблюдается дымка, при ухудшении видимости до 1 км и менее - туман. В сухую погоду видимость может ухудшаться дымом, пылью или мглою.
  • Явления - указаны атмосферные явления, наблюдавшиеся в срок или в последний час перед сроком; фигурными скобками обозначены явления, наблюдавшиеся между сроками (за 1-3 часа до срока); квадратными скобками обозначены град или гололедные отложения с указанием их диаметра в мм.
  • Облачность - указаны через наклонную черту общая и нижняя облачность в баллах и высота нижней границы облаков в метрах; квадратными скобками обозначены формы облаков: Ci - перистые, Cs - перисто-слоистые, Cc - перисто-кучевые, Ac - высококучевые, As - высокослоистые, Sc - слоисто-кучевые, Ns - слоисто-дождевые, Cu - кучевые, Cb - кучево-дождевые. Подробнее классификацию облаков см. в Атласе облаков (PDF).
  • T - Температура воздуха - температура, измеренная на высоте 2 м над землей.
  • Td - Температура точки росы - температура, при понижении до которой содержащийся в воздухе водяной пар достигнет насыщения.
  • f - Относительная влажность воздуха - влажноcть воздуха, измеренная на высоте 2 м над землей.
  • Te - Эффективная температура - температура, которую ощущает одетый по сезону человек в тени. Характеристика душности погоды. При расчете учитывается влияние влажности воздуха и скорости ветра на теплоощущения человека.
  • Tes - Эффективная температура на солнце - температура, которую ощущает человек, с поправкой на солнечный нагрев. Характеристика знойности погоды. Зависит от высоты солнца над горизонтом, облачности и скорости ветра. Ночью, в пасмурную погоду, а также при ветре 12 м/с и более поправка равна нулю.
  • P - Атмосферное давление - приведенное к уровню моря атмосферное давление.
  • Po - Атмосферное давление - измеренное на уровне метеостанции атмосферное давление.
  • Tmin - Минимальная температура - минимум температуры воздуха на высоте 2 м над землей.
  • Tmax - Максимальная температура - максимум температуры воздуха на высоте 2 м над землей.
  • R - Количество осадков - Количество выпавших осадков за период времени, мм. При наведении курсора мыши на число - период времени, за который выпало указанное количество осадков.
  • R24 - Количество осадков - Количество выпавших осадков за 24 часа, мм.
  • S - Снежный покров - Высота снежного покрова, см. При наведении курсора мыши на число - состояние снежного покрова и степень покрытия местности в баллах.